Dewpoint
57 57 57 56 56 56 56 55 55 55 54 54 54 54 55 56 56 56 57 57 58 59 59 60 61 62 62 62 63 63 63 63 63 63 63 63 63 62 62 62 62 62
55 55 56 55 55 55 55 54 54 54 53 53 53 53 54 54 54 54 55 56 57 57 58 59 60 61 61 62 62 62 63 63 63 63 63 63 63 63 62 62 62 62
54 54 54 53 53 53 53 53 53 52 52 52 52 52 52 53 53 53 54 55 55 56 57 58 60 61 61 62 62 62 62 63 62 63 63 62 63 62 63 63 62 62
53 53 53 52 52 52 51 51 51 51 51 51 51 51 52 52 52 52 53 53 53 54 55 57 60 61 60 61 61 61 62 62 63 63 62 63 63 63 62 62 62 62
52 52 51 51 51 51 51 50 50 50 50 50 50 51 51 50 51 52 51 51 51 52 55 58 60 60 60 60 60 60 61 61 62 62 62 62 62 62 62 62 61 61
51 51 51 50 50 50 49 49 49 50 50 50 50 49 49 50 50 50 50 50 50 52 54 54 55 58 59 59 60 60 60 60 61 62 62 61 62 62 62 62 62 61
50 50 50 50 49 49 49 49 49 50 49 49 49 49 49 49 48 48 48 49 49 50 49 50 51 53 54 57 57 57 57 57 58 60 60 61 62 62 62 62 62 61
49 49 49 49 49 49 49 48 49 49 48 48 48 48 48 48 47 47 48 48 48 48 48 48 48 48 50 54 55 54 54 55 55 55 55 58 61 61 62 62 62 61
49 49 49 49 49 49 48 48 48 48 48 48 47 47 48 47 47 47 47 47 47 47 47 47 47 48 49 50 52 52 51 51 52 52 53 54 56 58 60 61 61 61
48 49 49 49 48 48 48 48 48 48 48 47 47 47 47 47 47 46 47 46 46 46 46 46 46 47 47 48 50 51 50 49 49 49 49 51 53 54 57 59 60 60
48 49 48 48 48 48 48 48 48 47 47 47 47 46 46 46 46 46 46 46 46 45 45 45 46 46 46 46 47 49 50 49 48 48 48 49 50 52 55 56 59 60
48 48 48 48 48 48 47 47 47 47 46 46 46 46 46 46 45 46 46 45 45 45 45 45 45 45 45 45 46 47 47 47 47 46 47 47 48 50 52 54 56 59
47 47 47 47 47 47 47 47 47 47 46 45 46 45 45 45 45 45 45 45 45 45 45 45 45 45 45 45 45 45 44 44 45 45 46 46 48 49 51 53 55 58
46 46 46 46 46 45 45 46 46 46 45 45 45 45 45 44 44 44 44 44 44 44 45 45 44 44 45 44 43 43 43 43 43 44 45 46 47 49 51 53 55 57
45 46 45 44 44 44 44 44 45 45 45 45 45 44 45 44 44 44 44 44 44 44 44 44 44 44 44 43 43 43 44 44 44 44 45 46 47 49 51 53 55 57
43 44 43 43 42 42 42 43 43 44 44 44 44 44 44 44 43 44 43 43 43 43 43 43 43 43 44 42 42 44 45 45 45 45 45 46 48 50 52 54 55 57
42 42 42 41 41 41 42 42 42 43 44 44 44 43 43 43 43 43 43 43 43 42 42 42 42 42 40 39 40 42 46 47 46 46 48 49 50 49 49 50 51 51
42 41 40 40 41 40 41 41 42 43 43 43 43 43 43 43 43 42 42 42 42 42 41 41 41 41 38 39 40 40 44 48 49 49 48 48 48 48 48 48 48 49
42 41 39 39 39 40 40 41 41 42 42 43 42 43 42 42 42 42 42 42 42 41 41 40 40 39 38 39 39 40 41 46 48 48 48 47 47 46 46 46 47 48
41 40 39 39 39 39 40 40 41 41 42 42 42 42 42 41 41 41 41 41 41 41 40 40 40 39 38 38 39 39 40 44 47 47 47 46 45 45 45 45 46 46
39 39 39 39 38 38 39 40 40 41 41 42 41 41 41 41 40 41 41 41 41 41 40 40 40 38 37 38 38 39 40 43 46 46 46 45 45 44 44 44 44 45
39 38 38 38 38 38 39 39 40 40 40 41 41 41 41 40 40 40 40 40 41 41 40 39 39 38 37 38 38 38 41 45 45 45 45 45 44 44 44 44 44 44
38 38 38 38 38 38 38 39 39 39 40 41 40 40 40 40 40 39 40 40 40 40 40 39 39 38 37 37 37 38 41 43 44 44 43 43 43 43 43 43 43 43
37 37 37 37 37 37 38 38 39 39 40 41 40 40 39 40 40 39 39 39 39 39 40 39 39 39 37 37 37 37 41 42 42 42 41 42 42 43 43 43 43 43
37 37 36 36 37 37 37 37 38 38 39 39 39 39 39 39 41 39 39 39 39 39 40 39 38 39 38 37 37 37 40 41 41 41 41 41 41 41 42 42 42 42
36 37 37 36 36 37 37 37 38 37 37 38 38 38 39 39 39 39 38 38 39 39 39 39 39 39 39 37 37 37 38 40 40 40 40 40 40 41 40 41 42 41